User: anonymous   Login
Location: Mohawk View
(42.7837°N, 73.7885°W)
Time: 23:55:21
(UTC+00:00)
Language:

Landsat 4 - Orbit

View from above orbital plane
View from above orbital plane
View from above satellite
View from above satellite

Ground track
Ground track

The orbit data is extracted from the following two-line orbital elements,

1 13367U 82072A   21271.46104708  .00001924  00000-0  98464-4 0  9993
2 13367  98.2096 226.0446 0011122 271.4147 204.4445 15.17988553547464
Epoch (UTC): 28 September 2021 11:03:54
Eccentricity: 0.0011122
inclination: 98.2096°
perigee height: 504 km
apogee height: 519 km
right ascension of ascending node: 226.0446°
argument of perigee: 271.4147°
revolutions per day: 15.17988553
mean anomaly at epoch: 204.4445°
orbit number at epoch: 54746

The dashed part of the orbit path shows where the satellite is in the earth's shadow,  

DLR